Wind_Speed
7 6 6 5 4 4 3 2 2 4 5 6 8 9 10 10 10 11 12 12 12 12 12 12 12 12 12 11 11 11 11 12 12 11 11 10 8 8 9 8 7 8 8 7 6 6 5 3 2 2 4 4 6 9 12 14 14 14 12 11 10 7 4 15 20 22 25 26 26 26 26 27 28 27 23 20 15 14 16 16 16 14 12 16 18 19 19 18
7 7 6 5 5 4 4 3 3 3 3 3 5 6 8 9 10 11 11 12 12 12 12 12 12 12 12 11 11 11 11 11 12 12 12 11 8 7 8 8 7 8 7 7 7 7 5 4 3 3 4 5 8 11 13 13 14 13 11 10 7 7 2 14 20 20 23 24 26 26 26 27 26 24 22 20 20 19 19 19 18 17 18 21 21 19 19 17
6 6 6 6 5 5 4 4 4 3 3 3 3 4 5 7 8 9 11 12 12 12 12 12 12 12 12 12 11 11 11 11 11 13 13 12 10 8 7 7 7 8 7 7 9 9 8 7 5 3 3 6 9 12 13 13 14 13 10 9 5 5 1 14 17 17 22 24 26 26 25 26 24 21 21 22 21 20 20 19 18 21 22 23 22 20 18 17
6 6 5 5 5 5 5 5 4 4 4 4 4 5 5 6 6 7 8 10 11 12 12 13 12 12 11 11 11 11 12 11 11 12 12 11 11 9 7 6 6 7 8 8 9 10 9 8 7 6 2 5 8 12 13 14 15 13 9 7 4 5 6 16 17 16 21 24 26 27 24 26 26 22 21 22 23 21 20 15 13 19 21 22 23 21 19 17
6 6 5 5 5 5 5 6 6 6 6 6 7 6 6 7 8 8 7 8 9 10 11 12 12 12 11 10 11 11 11 10 10 11 10 10 10 9 7 6 6 7 8 8 9 9 8 9 10 8 1 4 5 11 13 14 14 10 8 5 4 7 8 15 17 18 22 23 25 27 24 23 26 24 21 20 20 20 18 12 10 15 17 20 21 21 19 17
6 6 6 5 6 6 6 6 7 8 8 8 8 8 8 8 8 9 8 8 8 9 10 11 11 11 11 10 10 10 10 9 8 8 8 9 10 9 8 7 6 6 7 7 9 8 7 10 9 4 4 3 4 11 12 14 11 7 8 3 6 8 9 16 18 19 22 22 23 24 23 23 24 24 21 18 16 15 13 10 11 14 15 18 19 19 19 16
6 6 6 6 6 6 7 7 8 8 8 8 8 8 8 8 8 9 9 9 8 8 9 9 10 10 9 10 9 9 10 9 10 9 7 7 7 7 8 8 7 6 7 7 9 8 8 9 6 6 7 2 4 9 12 13 10 6 5 3 6 6 10 17 18 19 22 22 21 22 22 23 24 25 22 20 17 14 12 10 11 14 16 18 18 18 16 15
7 7 7 7 7 7 7 7 8 8 8 8 8 8 7 8 8 8 8 9 8 8 8 8 9 9 8 7 8 9 9 10 12 12 10 8 5 5 6 8 8 7 7 8 10 10 10 7 7 9 8 4 4 7 12 13 8 4 3 3 7 6 12 18 18 20 22 22 22 22 23 23 25 26 23 21 20 17 15 13 13 16 18 18 18 18 16 15
8 8 8 9 8 8 7 7 8 8 9 9 9 9 8 8 7 7 8 8 8 7 7 7 7 8 7 5 6 7 8 10 12 12 12 12 10 7 6 8 9 7 7 9 12 13 12 11 12 10 5 4 7 8 12 9 4 2 1 4 6 7 12 16 17 21 22 21 23 24 26 28 26 24 23 24 23 19 18 15 15 17 18 18 19 18 17 16
9 9 9 9 9 9 8 8 8 8 9 9 10 10 10 9 8 8 7 7 7 7 7 6 6 6 6 5 3 5 8 11 12 11 13 13 12 10 7 7 8 8 7 9 12 13 13 12 12 8 3 3 7 8 8 3 3 1 2 4 6 7 11 13 16 23 23 22 22 23 26 29 25 23 25 27 24 20 19 17 17 18 17 17 18 17 16 16
9 9 9 9 9 9 10 10 10 10 10 9 10 10 10 10 9 8 8 7 6 6 6 5 5 5 5 4 1 5 8 10 11 9 11 12 11 10 9 7 8 9 8 9 12 15 14 12 12 8 3 3 5 6 5 3 5 3 4 6 7 8 12 13 15 23 25 23 22 22 26 27 25 24 24 25 23 18 18 20 21 19 18 17 17 15 13 13
9 9 9 9 9 10 11 11 11 11 11 10 10 10 10 10 9 9 8 7 6 6 5 5 5 4 4 3 3 7 8 10 10 5 5 8 9 9 9 8 9 10 8 9 14 17 16 15 14 8 3 2 4 4 3 2 4 3 4 7 9 8 12 15 15 22 26 23 20 21 25 23 20 23 25 25 22 17 19 23 23 20 19 18 16 13 12 12
9 9 9 9 10 11 11 12 12 12 11 11 11 10 10 9 9 8 7 7 6 5 5 4 4 3 3 3 1 4 7 10 12 6 4 4 6 7 8 9 10 11 11 13 17 18 19 19 14 6 1 3 2 3 2 1 1 4 5 7 9 9 12 16 17 20 23 23 20 22 24 18 15 22 28 30 22 17 22 24 23 23 20 17 15 14 13 12
9 9 9 10 11 11 12 12 12 12 11 10 10 9 8 8 7 7 6 6 5 5 4 3 3 3 3 3 3 1 6 10 14 9 5 5 6 8 9 10 11 12 14 17 19 21 21 20 13 6 4 7 3 1 1 1 3 6 7 7 8 9 8 12 16 18 19 21 23 24 23 19 20 22 26 31 21 17 25 25 24 23 19 18 17 16 15 11
9 9 9 11 11 12 12 12 12 11 10 8 7 6 5 6 5 4 4 4 3 3 2 4 4 5 5 6 6 2 3 8 12 8 4 7 6 8 10 12 12 13 15 18 21 23 22 18 12 8 8 11 7 3 0 4 7 7 6 7 8 9 8 8 13 17 18 21 24 24 23 23 27 24 22 26 18 15 24 25 24 23 20 20 19 18 16 12
8 9 10 11 12 12 12 12 11 9 7 6 5 5 5 6 7 6 4 3 3 3 4 5 7 9 10 9 8 5 3 2 5 4 4 8 9 10 12 13 13 15 17 21 24 24 22 16 11 10 11 12 10 6 2 5 5 3 4 9 9 9 12 12 13 18 20 23 24 23 24 26 28 26 24 26 17 15 24 25 25 24 21 22 21 20 18 15
8 9 10 11 11 11 11 10 9 7 5 5 5 6 7 7 8 8 7 6 6 6 7 8 10 11 12 10 8 7 5 6 2 4 6 8 11 12 11 13 16 17 19 23 24 22 21 17 14 13 12 13 12 8 6 5 4 4 5 10 12 10 12 14 15 19 21 21 20 20 25 27 27 26 27 30 20 15 23 25 26 25 22 22 21 21 21 19
9 10 10 11 11 11 10 9 7 6 5 4 5 7 8 8 9 7 7 7 7 7 8 9 10 9 9 11 9 7 7 8 7 6 9 8 10 11 9 10 17 20 21 23 21 19 19 17 16 15 15 16 15 12 10 7 3 2 5 8 12 12 11 13 14 17 17 16 17 17 23 27 26 26 28 31 27 20 21 23 25 25 21 23 23 24 24 22
9 10 10 10 10 10 9 7 7 6 5 4 4 7 8 8 8 5 5 6 5 5 4 4 7 6 5 10 10 7 8 9 8 6 9 12 12 11 8 7 14 20 20 20 18 17 18 17 16 17 21 22 18 14 9 5 2 2 2 4 9 12 11 13 13 14 14 14 16 15 21 28 26 28 29 30 30 27 24 21 24 24 20 23 25 24 22 21
8 9 9 9 10 9 8 7 8 8 8 7 5 5 6 7 8 5 3 4 3 4 4 4 6 4 3 7 7 6 9 8 4 3 8 13 11 10 10 7 11 18 19 16 13 15 16 17 19 20 24 24 17 11 7 5 2 1 2 3 7 9 11 14 16 17 16 15 16 16 20 27 27 29 30 28 29 31 29 24 24 24 20 23 25 22 20 20
8 8 8 9 9 8 7 8 9 11 13 14 12 8 6 7 11 9 3 6 5 4 4 4 7 2 1 7 7 4 6 7 3 3 7 11 10 11 11 9 13 17 17 15 11 12 15 17 18 17 20 21 15 12 11 9 6 4 5 5 8 9 10 14 16 18 19 18 18 18 19 25 28 29 29 28 28 30 32 28 25 24 20 22 24 20 20 21
7 7 7 8 7 7 7 8 11 13 16 19 18 15 11 9 13 13 6 7 10 8 6 5 2 3 6 7 6 4 4 5 4 4 8 12 11 12 11 12 16 14 13 15 12 11 15 15 12 12 18 21 18 15 15 14 12 7 8 9 11 12 12 13 14 16 18 20 20 20 20 23 27 28 29 31 30 30 33 31 28 25 21 20 22 20 21 23
6 6 6 6 7 7 7 8 10 13 15 17 17 15 12 9 10 12 9 5 9 10 9 10 9 5 6 6 3 3 5 2 4 5 8 12 11 11 11 13 13 10 11 14 14 14 14 10 9 14 19 21 20 16 15 17 16 11 12 15 13 14 12 11 15 16 16 18 19 21 21 22 26 28 30 32 32 31 31 32 30 25 20 19 20 20 20 23
4 4 5 5 6 6 7 9 10 11 13 15 14 12 11 10 10 9 8 5 6 7 9 12 10 7 6 5 2 4 5 3 4 6 5 6 10 11 10 11 9 8 11 12 13 16 12 9 10 14 18 20 18 15 18 21 18 14 15 15 12 12 10 8 14 18 16 15 17 22 20 19 23 25 30 34 31 31 30 31 31 26 22 20 21 22 20 20
3 4 4 4 4 5 5 7 8 9 10 12 12 11 11 11 10 10 9 6 6 5 5 9 8 7 7 3 3 5 3 2 4 6 3 1 7 12 11 10 10 8 10 10 11 17 13 7 5 11 15 17 16 16 20 23 18 15 16 15 11 10 9 10 14 18 18 14 17 24 17 14 22 23 27 35 32 29 31 32 30 27 26 22 23 25 22 20
3 3 4 3 3 4 3 3 3 4 7 10 11 11 10 10 9 10 10 7 7 4 3 6 6 8 8 2 3 2 1 3 4 4 3 2 5 12 12 10 12 9 7 7 11 17 15 10 10 12 13 15 16 16 20 23 19 15 16 13 12 13 11 12 16 20 20 15 18 25 14 10 23 26 26 34 35 31 31 32 31 29 29 26 24 26 26 23
3 4 4 3 3 5 5 6 6 7 8 10 11 9 8 8 8 9 7 5 5 6 4 4 4 6 7 3 2 2 3 4 5 4 5 4 4 10 14 12 12 11 8 8 12 16 13 11 13 14 14 16 18 17 18 21 18 13 12 11 12 14 12 12 15 17 18 15 18 25 15 9 21 28 27 31 35 35 33 32 32 32 31 28 26 27 27 24
4 5 5 3 4 6 8 10 11 10 9 8 8 8 7 7 8 8 5 2 4 6 2 3 2 5 2 3 4 6 4 3 4 2 5 3 4 9 13 11 11 12 10 9 13 15 12 11 11 12 13 16 19 16 14 18 16 11 13 13 9 10 12 13 14 15 16 16 18 24 18 8 16 29 30 30 33 36 37 35 33 34 34 30 28 28 26 25
4 6 6 4 6 8 9 10 10 8 6 6 5 7 7 7 7 5 4 2 3 4 3 3 5 5 2 4 4 7 6 2 1 1 3 4 6 12 14 10 10 11 11 11 15 14 11 8 7 12 15 15 16 15 13 16 15 12 16 16 12 11 14 14 13 14 15 11 13 23 22 9 9 26 35 33 36 39 39 38 36 35 34 32 29 29 28 25
5 7 7 6 7 9 10 9 8 6 5 5 5 6 6 7 7 4 3 3 3 4 4 2 6 7 7 5 5 8 6 4 1 0 2 4 8 14 13 10 10 11 11 12 15 15 11 5 3 11 16 12 13 15 15 17 16 15 17 19 18 17 16 13 12 13 10 4 8 19 24 11 4 22 36 34 35 41 40 38 38 37 35 34 31 30 30 27
6 8 9 8 8 10 9 8 7 5 4 3 5 7 6 6 8 4 1 3 2 2 3 3 5 8 6 4 5 5 4 5 4 2 2 3 7 10 10 10 10 11 9 10 14 15 12 8 5 8 12 13 15 13 12 15 16 15 19 21 20 17 13 10 11 11 3 3 6 13 20 12 4 17 30 26 26 36 41 38 38 39 37 36 34 31 30 28
8 9 10 10 10 10 9 8 6 4 3 4 7 10 8 6 8 8 5 2 2 3 2 3 2 6 7 2 1 1 2 7 5 2 2 4 5 5 7 10 10 8 7 6 8 10 11 10 7 7 10 15 18 14 13 16 16 16 22 24 15 8 6 4 5 6 3 3 5 11 18 12 7 11 18 20 19 27 39 38 36 38 37 37 37 34 31 29
8 10 11 11 11 10 8 7 5 3 3 7 8 10 11 7 7 13 10 4 7 9 4 0 2 3 7 6 5 3 5 8 5 2 1 4 6 3 5 10 10 9 7 6 6 8 9 8 7 8 11 15 19 18 16 22 25 19 21 25 15 6 3 2 2 2 2 4 5 13 16 8 8 7 10 17 15 18 33 37 32 35 36 36 38 36 33 30
9 11 13 12 11 11 8 7 4 2 2 6 7 8 10 7 8 15 13 9 11 9 6 6 4 2 5 7 3 3 6 7 5 4 0 4 8 6 6 10 9 9 10 12 11 11 8 7 9 9 11 14 19 19 13 19 27 19 12 17 18 12 5 3 5 4 3 4 7 15 12 5 5 5 7 14 14 17 29 34 31 32 34 35 37 38 35 32
9 11 13 13 12 11 8 6 3 0 2 4 6 7 10 9 11 13 12 14 12 8 10 11 5 4 5 5 4 5 6 4 2 4 3 4 6 5 5 5 8 9 7 9 9 6 6 9 11 11 12 15 20 21 17 15 20 17 13 16 19 14 8 6 7 10 11 8 8 12 9 6 6 5 7 13 15 19 26 31 33 32 32 35 37 40 38 34
9 11 14 14 12 11 9 7 3 2 3 4 6 8 8 8 10 11 12 16 12 11 16 12 3 6 7 2 6 8 5 4 2 4 7 5 5 4 4 5 2 7 3 4 5 1 4 6 9 15 16 15 17 20 22 20 14 12 16 21 19 12 8 5 6 11 13 7 5 10 8 8 8 6 9 13 15 19 23 29 35 34 33 36 38 40 40 37
9 12 14 14 12 10 9 7 4 3 3 2 6 7 7 7 8 10 12 12 9 12 16 11 6 8 6 1 3 3 4 4 4 6 7 3 3 3 3 4 5 4 2 4 6 3 8 9 7 18 20 17 14 12 17 22 16 10 10 13 14 10 9 6 6 7 6 2 4 10 9 9 9 7 10 15 16 19 22 27 33 34 34 36 38 39 40 39
9 11 13 13 11 9 8 7 5 4 3 0 5 6 7 10 8 7 10 8 7 12 13 9 9 9 5 1 4 5 4 6 6 8 7 6 0 3 2 5 3 1 2 3 5 4 7 9 3 19 22 18 14 9 11 18 19 15 8 5 7 6 5 7 7 4 3 1 2 6 8 10 12 11 11 13 15 16 19 24 30 34 35 36 36 37 39 39
9 10 11 11 9 9 7 7 6 4 3 1 6 8 9 13 10 7 8 6 7 11 11 7 7 12 9 1 8 10 3 6 4 6 7 7 2 4 3 5 4 5 2 4 5 5 5 8 4 11 19 18 14 11 11 15 18 18 11 6 7 5 4 6 8 7 5 3 1 2 3 6 11 14 11 9 10 12 15 19 25 32 34 34 33 35 37 37
11 10 8 8 8 8 7 7 6 4 4 1 6 8 10 15 12 8 8 6 8 11 9 7 7 12 10 2 9 14 1 3 3 7 7 7 5 3 4 2 8 3 1 2 3 5 7 8 9 4 12 18 16 8 6 12 16 15 13 11 10 9 7 5 8 12 9 5 4 2 2 4 9 13 12 9 8 8 11 14 18 25 31 32 32 33 36 36
12 11 10 9 8 5 4 5 5 3 2 3 7 7 8 12 9 7 8 7 7 8 6 6 7 10 9 3 9 14 6 4 6 10 9 11 10 7 6 6 7 2 2 0 4 9 9 9 12 11 6 9 12 5 2 8 12 11 11 12 12 13 11 4 5 12 11 6 6 6 3 3 6 11 12 11 9 7 7 9 12 18 25 31 31 31 34 36
15 14 12 12 8 5 2 2 2 3 5 5 9 12 11 9 7 7 8 6 2 1 3 6 4 5 8 6 7 10 7 7 8 10 11 12 10 9 9 6 5 4 3 2 6 7 4 6 8 6 5 5 3 3 4 8 10 9 9 11 13 15 15 10 5 5 5 4 7 8 4 2 4 7 9 9 9 8 6 6 8 10 17 25 27 29 35 41
15 13 11 11 9 5 1 2 4 6 5 7 10 14 13 8 7 8 7 6 4 2 5 10 5 3 7 7 5 7 6 5 9 11 12 10 5 5 7 5 4 6 5 4 5 3 1 7 8 4 2 2 2 0 3 3 2 1 2 5 9 14 17 16 11 7 4 7 5 5 3 3 4 2 5 6 8 8 7 6 7 7 10 16 20 26 35 41
14 11 10 10 8 4 5 5 3 4 5 7 9 9 9 8 8 8 7 5 5 5 6 9 6 3 7 6 3 6 6 5 10 10 10 8 2 1 3 4 6 8 9 9 6 2 5 11 11 8 4 1 2 2 3 8 16 16 13 10 4 9 17 18 15 11 5 5 4 4 5 7 6 4 4 6 6 8 8 6 6 6 8 11 14 18 24 30
12 11 11 11 11 9 8 7 4 4 4 7 9 7 6 7 7 8 9 9 5 1 5 7 4 4 7 5 2 4 5 2 6 5 6 5 1 1 3 4 7 9 11 11 6 3 7 12 13 10 6 2 3 4 9 15 17 20 17 12 9 5 8 11 9 8 5 6 6 5 10 14 11 7 7 8 8 9 9 7 5 6 7 8 9 9 10 15
11 12 14 13 14 14 10 7 7 7 8 10 11 8 6 6 4 4 1 3 4 5 3 5 3 4 4 3 3 4 4 5 7 6 4 4 3 1 2 3 6 7 8 8 6 5 7 9 12 11 8 5 5 9 14 13 15 21 18 11 10 10 2 6 7 11 11 12 12 11 15 18 13 9 8 9 10 9 8 7 6 6 8 9 9 9 8 8
11 12 15 12 13 15 15 14 12 11 11 14 14 11 7 4 2 3 3 4 3 2 3 3 3 6 5 4 5 3 4 5 7 8 5 5 6 4 2 4 4 4 6 7 6 5 6 5 7 7 7 6 6 11 13 17 23 21 16 14 13 11 5 6 12 16 14 13 13 12 17 18 13 10 9 8 10 11 9 8 8 9 10 12 13 13 12 11
15 14 14 10 8 10 14 14 11 9 8 9 11 10 7 4 2 1 2 0 1 3 3 2 2 6 3 3 3 2 3 2 4 7 5 3 4 4 5 5 5 7 7 6 4 3 4 5 4 4 4 6 11 15 18 25 27 22 19 19 16 12 11 13 16 14 12 13 15 12 16 16 14 9 7 6 8 8 8 8 9 10 11 12 14 13 12 13
19 16 12 10 8 7 8 7 7 6 3 1 4 4 2 3 2 2 4 3 2 3 2 1 1 4 4 0 3 4 2 1 2 4 3 3 3 2 2 2 6 9 9 7 4 3 5 6 5 4 2 8 17 23 25 26 26 24 23 22 22 21 21 22 21 16 16 21 20 15 16 16 13 8 6 4 4 4 4 6 6 7 9 10 12 12 12 13
20 17 12 10 10 10 8 5 4 4 1 3 3 4 3 2 1 1 3 3 5 3 1 1 2 5 6 3 1 4 3 1 1 1 2 3 5 3 1 1 4 7 9 9 6 4 6 6 6 5 3 8 13 17 23 26 27 26 23 19 18 19 20 22 22 18 19 20 16 13 15 14 9 6 5 3 3 2 3 3 4 4 5 6 7 8 9 12
22 20 16 12 10 10 11 8 5 3 2 3 4 5 5 4 3 3 3 4 4 1 2 2 0 4 5 2 3 5 4 3 4 4 4 1 3 5 2 1 4 7 8 9 7 6 6 4 4 5 5 7 10 12 16 20 22 27 28 21 15 13 15 18 17 14 13 13 10 9 10 9 5 4 5 4 4 2 2 3 4 4 5 5 6 7 7 10
21 21 20 17 12 9 10 8 5 3 5 5 3 3 4 4 5 3 2 6 7 6 6 6 3 2 3 2 6 7 5 4 6 7 6 5 5 3 2 1 3 6 6 7 7 5 6 5 5 7 5 8 14 9 8 9 10 19 24 20 16 13 14 16 17 14 10 8 8 6 5 5 3 3 3 3 3 3 2 3 4 5 6 6 7 8 7 7
Wind_Direction
10 12 16 19 14 10 1 338 303 285 277 275 274 274 274 273 273 272 271 269 267 264 262 260 257 255 253 251 249 248 247 247 247 248 254 258 257 253 250 243 232 224 226 220 210 213 214 202 205 16 46 61 44 29 16 11 358 347 344 347 3 1 218 186 175 170 172 169 165 167 165 158 159 161 161 164 158 139 138 154 163 159 165 160 153 148 145 147
6 6 8 11 13 12 10 11 7 354 329 305 289 283 279 278 276 275 274 272 271 268 264 262 259 257 254 252 250 248 247 247 249 246 248 253 252 250 248 245 236 228 224 209 207 209 196 187 165 103 72 43 28 21 8 356 348 346 345 354 16 13 301 193 181 173 173 170 167 169 168 162 159 159 162 161 148 144 150 160 165 161 163 161 157 153 147 147
6 5 0 2 5 6 8 9 10 9 2 348 327 310 296 288 283 280 278 276 275 272 269 265 261 258 255 252 249 248 247 245 249 249 248 249 250 248 244 243 236 230 222 206 209 202 185 186 177 161 105 49 19 6 351 337 343 346 347 7 41 49 158 191 183 176 174 172 169 167 166 159 153 155 160 155 149 156 165 168 168 165 168 165 161 157 149 147
7 5 0 357 354 355 354 350 348 343 340 336 330 325 315 308 299 291 287 284 281 278 275 270 265 260 256 253 249 247 246 245 247 249 250 250 249 247 244 241 235 232 221 207 211 208 199 202 214 230 181 64 4 342 328 329 351 354 353 19 67 103 153 181 181 181 176 173 171 167 166 157 148 151 155 155 158 168 180 183 172 166 169 166 160 157 151 149
7 5 360 355 349 345 340 334 332 327 326 324 323 321 316 312 306 302 296 291 289 287 283 278 272 265 259 253 249 246 244 245 245 246 249 250 249 245 243 240 234 232 225 209 210 215 207 213 229 243 214 68 330 305 306 330 357 8 12 34 125 137 161 179 182 184 177 177 175 167 165 154 147 154 159 166 172 176 188 194 173 165 165 162 159 156 152 151
6 2 357 352 346 340 335 331 326 323 321 319 319 317 314 309 304 303 299 296 292 291 290 287 283 275 267 257 250 247 240 233 235 239 239 242 243 239 235 235 233 229 225 207 203 206 196 213 226 200 105 94 276 280 298 334 351 5 20 46 153 147 166 178 181 181 175 179 177 165 160 153 153 160 162 175 185 184 192 187 165 165 162 158 158 155 152 150
3 359 355 350 343 340 336 332 328 325 324 322 322 319 316 312 306 302 299 299 293 289 290 291 292 287 279 266 253 247 239 230 230 228 218 220 232 234 228 228 232 223 217 202 194 190 189 213 208 132 101 89 274 286 302 329 339 337 13 97 155 144 164 173 175 175 175 178 175 167 164 159 160 161 161 177 187 187 191 183 170 167 162 159 159 155 151 148
358 356 353 349 345 344 341 340 338 336 336 335 334 331 327 321 316 309 303 300 297 292 288 289 295 294 292 281 258 248 245 238 232 224 216 211 208 219 219 221 225 215 205 190 181 177 180 178 128 108 82 30 302 299 306 319 333 316 336 141 157 146 160 171 173 172 176 177 176 176 168 159 162 162 163 179 190 190 189 188 183 172 163 159 158 158 154 152
354 353 351 350 350 350 352 352 350 348 345 341 337 336 335 330 326 320 311 305 301 296 292 290 292 295 299 294 263 248 245 239 234 226 223 219 211 210 206 211 215 211 199 186 181 173 168 148 110 99 83 0 309 310 316 323 350 334 308 156 161 158 162 168 170 171 175 175 177 184 172 159 164 166 166 177 186 190 190 193 187 173 164 160 160 163 161 158
353 352 351 352 354 355 356 354 351 350 344 338 334 331 329 328 324 321 318 313 308 300 296 291 288 294 298 300 274 237 236 239 238 228 222 219 214 210 200 199 204 202 192 186 180 165 161 144 108 101 115 319 309 318 330 23 78 35 144 150 150 163 168 164 163 167 175 175 175 182 170 160 165 169 166 169 179 189 190 189 184 173 165 163 164 168 164 160
352 353 353 355 357 356 354 348 345 343 339 335 330 325 322 320 317 314 312 312 312 307 301 294 290 289 289 304 221 212 233 239 241 234 224 220 211 208 200 190 192 190 182 183 170 160 167 152 126 122 105 320 291 310 332 103 117 121 153 156 147 164 170 164 163 166 174 178 178 178 168 161 163 167 166 165 175 191 187 177 176 174 169 167 167 168 162 158
352 354 355 357 356 354 350 343 340 338 334 331 325 321 317 313 310 307 305 304 306 308 305 298 293 290 294 303 187 213 246 251 246 238 220 219 209 207 202 188 184 176 170 175 164 161 171 157 136 124 92 301 270 298 321 127 126 106 144 158 144 154 167 170 171 168 173 177 178 170 161 159 158 166 169 165 176 187 177 170 171 174 173 169 164 160 158 160
353 356 356 356 354 351 345 339 338 335 331 327 322 318 313 309 307 301 297 296 296 301 304 305 310 319 312 314 197 221 262 271 262 233 174 201 208 201 199 194 182 167 162 165 164 165 166 154 136 111 349 266 265 307 317 130 108 94 126 152 145 147 162 174 173 167 170 169 169 165 158 156 157 170 169 163 175 180 169 168 168 171 172 163 156 155 158 165
354 357 357 354 353 348 341 337 337 334 331 329 324 322 318 315 309 300 296 291 291 298 307 333 350 4 3 9 46 164 236 255 263 249 189 191 200 192 192 193 182 168 164 163 166 171 166 154 143 131 252 249 227 321 344 113 121 110 118 141 155 153 159 180 174 167 166 162 168 170 159 154 162 175 172 162 168 175 168 166 166 169 166 156 156 156 159 168
356 359 357 353 351 345 340 340 339 338 339 341 345 348 349 345 338 330 317 304 312 319 355 32 49 63 59 45 49 65 237 240 253 264 201 187 184 188 189 182 176 170 165 164 169 176 170 157 154 167 210 223 216 225 267 122 130 129 132 154 165 158 169 195 181 177 176 169 175 173 156 153 164 174 175 164 163 175 169 162 166 169 161 157 160 158 162 176
358 359 357 353 350 345 343 345 345 348 354 5 17 24 32 28 25 26 28 37 26 40 62 72 90 78 62 51 51 50 6 272 242 248 182 178 171 178 183 171 171 169 165 170 175 179 172 160 170 195 205 205 207 220 192 127 143 179 179 176 173 161 170 179 181 186 181 174 178 171 156 156 166 171 169 164 165 179 169 161 168 172 163 162 164 164 170 186
1 1 359 355 351 348 349 352 356 3 18 34 44 45 43 42 41 47 66 70 69 80 78 89 102 83 67 63 57 56 47 40 57 168 166 171 167 164 166 165 172 171 170 177 181 180 173 169 184 198 206 201 198 210 200 174 200 235 205 186 182 174 171 169 178 184 175 173 174 162 159 164 171 172 165 162 167 177 169 164 172 177 171 168 170 174 181 195
5 3 1 357 355 355 357 2 12 28 48 56 65 51 35 33 32 50 90 91 83 82 82 93 100 92 74 62 54 55 45 36 55 132 146 143 148 147 144 160 174 172 172 180 183 180 177 180 191 196 201 202 201 209 204 186 179 185 196 198 188 183 178 173 180 180 169 171 174 163 165 172 174 171 167 165 165 169 170 169 175 181 178 172 178 186 192 204
8 5 4 2 0 3 7 19 34 47 53 50 64 47 30 24 20 41 104 108 96 78 80 109 104 100 72 57 55 35 9 23 56 103 133 136 139 146 155 168 174 172 174 181 182 181 182 185 193 196 196 199 205 204 188 174 154 108 165 207 198 190 183 179 174 173 177 179 180 179 174 176 175 171 174 171 164 166 174 178 180 185 185 179 185 193 198 205
12 9 9 7 8 13 21 41 54 56 50 40 53 61 51 36 22 28 99 97 110 118 106 147 138 96 55 85 79 20 346 352 31 98 141 148 149 161 182 191 176 177 179 177 175 180 188 194 201 200 195 195 198 190 168 174 233 290 199 198 197 194 180 177 171 170 187 192 186 187 179 179 177 175 178 173 165 170 178 185 186 190 193 189 191 196 198 200
16 15 16 16 19 26 38 58 65 61 56 52 54 62 61 30 14 16 66 76 72 122 121 156 181 206 115 117 103 63 330 304 262 198 164 162 167 173 187 195 182 182 177 169 166 180 194 204 209 204 194 189 186 190 193 199 221 240 226 195 177 186 176 175 180 178 187 195 191 191 188 186 185 180 177 174 171 173 180 188 193 197 201 197 195 197 196 195
22 23 26 27 32 40 51 66 70 67 65 59 53 46 39 22 12 17 41 70 64 71 70 74 125 187 163 137 101 73 332 284 198 180 167 164 176 180 182 190 187 179 170 174 178 192 209 213 206 187 183 183 180 192 208 215 221 228 221 201 181 182 171 167 186 188 189 192 187 190 195 195 193 186 178 178 178 175 180 189 195 200 205 202 196 196 195 192
31 34 39 42 48 53 61 69 73 75 74 68 59 49 46 35 17 12 10 35 57 56 53 55 59 86 140 137 100 26 343 288 162 139 149 162 175 181 181 186 188 174 172 187 188 197 211 197 167 164 172 179 180 192 210 215 223 235 217 200 188 181 171 170 184 186 190 193 185 183 192 200 200 191 181 182 182 177 183 190 193 197 203 205 199 196 198 193
43 52 58 58 62 61 67 70 68 73 79 82 75 68 70 52 26 10 3 15 38 40 46 53 63 70 84 107 79 355 326 267 179 154 160 175 172 175 176 178 191 186 180 188 194 203 190 132 141 170 172 179 185 198 209 210 221 234 219 207 199 189 187 190 184 180 182 190 189 178 178 196 204 197 186 185 184 180 185 191 192 194 197 202 201 201 208 205
61 80 81 72 69 65 76 74 60 58 73 89 86 80 80 60 33 10 8 14 8 11 43 48 62 53 42 90 61 7 290 221 163 168 184 191 175 173 160 170 201 205 187 187 210 224 204 149 181 196 186 189 198 210 215 216 217 219 224 226 221 209 204 193 180 176 173 177 188 179 169 189 204 208 196 188 187 185 186 192 194 192 193 198 201 204 213 215
97 109 102 83 64 51 48 38 45 72 79 81 73 66 68 62 45 20 11 360 3 33 71 48 59 34 22 65 66 28 192 130 141 188 189 181 194 182 170 186 207 208 207 214 237 240 227 216 229 224 212 204 204 212 215 214 209 215 229 225 218 221 209 191 181 175 173 174 183 181 174 183 196 209 206 191 190 192 191 194 196 193 192 197 201 205 212 217
132 130 125 101 61 52 47 51 86 107 90 70 55 45 48 48 42 35 20 338 11 83 83 51 66 20 16 74 128 154 83 94 160 183 169 187 237 202 195 204 216 221 225 246 255 244 234 224 224 236 235 213 204 205 206 207 205 213 212 186 196 209 196 188 184 176 175 173 175 183 184 173 187 202 208 200 197 195 195 197 198 195 193 197 201 204 212 219
152 147 141 112 79 77 78 81 91 97 83 66 50 35 28 16 13 33 43 14 80 103 50 9 16 342 331 167 175 164 97 93 179 153 155 198 269 221 208 202 217 227 211 235 255 236 230 231 223 229 232 221 211 199 195 205 204 193 183 168 165 177 178 182 178 173 172 165 172 188 192 174 186 196 200 207 208 202 200 199 199 198 195 196 199 203 212 221
164 161 151 123 105 98 95 94 89 88 74 54 36 17 6 349 348 15 34 46 102 83 16 359 3 353 174 169 153 136 97 61 269 35 186 252 260 220 214 209 223 231 211 233 257 241 230 239 228 216 217 220 214 201 198 208 199 176 176 179 164 154 170 175 168 170 171 170 181 188 188 179 190 195 194 203 212 210 205 201 199 199 197 196 198 202 209 216
173 168 156 136 119 108 106 104 91 78 53 30 19 10 354 342 352 11 36 42 68 53 47 54 28 52 114 118 115 124 90 67 93 351 224 251 229 209 214 221 230 240 227 229 246 240 223 206 205 216 219 209 188 192 206 205 191 167 164 170 160 152 161 166 169 170 163 200 206 183 184 182 182 196 195 201 212 211 207 204 201 200 197 195 198 201 204 211
179 173 163 148 133 123 118 110 97 79 56 32 20 16 359 358 17 26 28 11 343 24 73 103 48 53 82 87 100 121 112 125 161 238 260 223 206 210 230 237 236 248 249 234 234 235 228 223 209 200 215 202 172 170 187 192 193 172 156 154 146 143 150 148 164 173 162 263 214 185 185 187 205 203 201 208 217 210 205 204 203 201 198 196 197 200 203 211
181 177 167 156 146 138 130 121 112 97 68 24 14 18 10 14 28 15 1 6 340 359 67 143 78 23 6 350 143 351 164 158 169 220 247 220 195 210 232 224 230 246 257 252 241 245 242 237 218 176 191 200 185 165 143 156 179 175 161 157 138 127 154 143 159 184 233 242 205 190 184 189 231 219 208 214 220 211 203 202 205 204 201 197 197 200 202 208
182 180 171 163 158 150 139 134 125 94 44 9 9 15 11 17 22 7 3 10 3 1 14 227 242 346 333 284 244 252 211 200 210 192 224 233 207 232 225 203 222 248 257 287 300 279 254 224 216 195 189 198 191 177 155 153 166 173 173 172 163 138 147 175 194 185 229 232 199 185 183 201 239 228 214 209 206 203 198 198 206 208 206 202 200 201 202 205
182 182 175 169 167 161 149 145 134 76 6 1 8 7 5 19 21 10 3 355 1 10 15 359 326 280 297 285 251 167 196 211 227 206 206 254 227 247 244 210 224 252 265 285 292 289 267 215 215 209 195 201 192 187 187 166 166 177 185 186 187 182 163 172 195 170 141 160 168 175 184 224 233 215 208 198 188 185 190 196 204 208 209 208 202 202 204 206
182 181 177 175 175 171 162 157 153 131 310 340 5 4 356 360 6 9 359 347 355 9 4 359 330 300 322 290 218 177 187 178 191 208 197 246 249 252 262 243 231 233 265 285 273 280 263 222 216 213 203 204 196 197 209 187 173 180 181 189 199 197 179 156 169 170 150 134 159 179 197 223 215 217 201 190 191 189 189 196 204 207 209 208 205 204 206 208
181 180 179 181 182 180 175 168 173 236 279 326 12 15 4 2 3 5 355 343 346 359 359 3 327 310 338 305 198 191 197 164 164 222 202 227 290 273 288 352 205 213 273 291 248 319 312 255 219 212 209 200 195 202 212 206 193 187 187 196 206 212 210 166 127 155 151 125 173 191 210 219 209 224 209 195 199 199 196 198 203 209 209 207 206 206 208 209
176 179 182 185 186 184 185 176 180 235 257 10 22 20 24 23 358 346 351 346 350 3 358 360 356 334 341 48 148 189 224 172 161 200 186 189 324 328 310 25 101 161 342 291 259 328 333 309 233 207 205 195 191 202 215 214 207 193 185 194 203 221 231 192 122 144 153 76 195 204 223 220 203 209 208 203 205 206 206 203 204 208 209 207 205 205 208 210
169 175 182 187 186 184 191 186 187 228 223 72 7 10 21 18 7 351 0 358 349 1 357 350 359 1 10 110 10 348 222 168 157 186 150 128 331 9 222 203 152 175 326 320 293 308 321 327 226 192 195 192 193 202 213 213 210 209 201 188 202 219 220 178 148 163 187 97 209 218 232 230 222 219 212 211 209 206 207 207 206 208 208 206 203 202 206 210
151 158 172 184 186 182 193 196 196 227 211 210 356 14 12 3 9 11 8 6 345 354 1 356 350 358 6 341 353 2 178 150 112 178 141 131 195 23 148 206 350 345 322 4 332 321 337 354 33 178 190 190 189 201 207 200 206 218 228 239 237 241 239 203 189 192 181 163 198 220 240 249 235 229 230 225 208 201 207 209 209 210 209 207 204 202 204 208
132 136 148 166 175 177 190 198 189 176 145 121 353 16 17 4 7 7 350 330 330 345 356 3 356 353 3 65 10 11 78 150 99 166 149 140 166 86 103 350 356 336 240 21 358 20 34 13 15 81 177 185 190 207 212 194 202 218 230 240 240 232 237 234 217 217 203 159 135 145 240 252 226 223 227 224 212 204 212 214 212 212 210 209 207 203 202 204
125 128 129 138 144 137 152 160 150 159 216 307 332 346 357 355 356 355 347 326 321 335 333 336 351 354 4 42 6 9 29 74 105 146 126 113 136 120 78 22 6 316 240 337 22 24 26 13 17 35 88 164 190 221 237 208 219 226 230 243 243 234 236 248 236 226 217 193 174 170 189 221 212 220 215 210 219 219 214 217 217 215 212 210 209 205 202 203
131 140 146 145 123 72 66 158 177 268 291 323 336 331 329 328 307 305 342 8 36 50 3 350 340 352 7 7 359 14 37 53 82 123 108 93 105 92 61 30 4 340 304 332 23 20 356 359 15 17 33 79 153 278 277 244 239 228 231 247 246 240 236 230 229 217 185 175 191 180 158 129 181 225 219 203 210 219 221 211 205 213 213 212 213 208 204 204
137 148 163 157 122 73 325 240 235 263 311 336 328 327 326 313 284 288 318 13 53 81 33 19 359 314 0 9 25 36 32 54 82 109 114 109 116 82 46 15 360 356 343 356 26 47 338 3 16 357 341 81 88 11 204 222 354 35 317 291 258 246 235 231 245 244 152 112 134 151 120 128 142 193 222 203 198 207 219 214 198 198 201 208 215 214 213 213
142 145 164 167 145 159 253 265 244 252 305 319 310 322 332 304 267 260 268 302 9 32 27 22 16 344 2 13 63 44 21 73 92 94 104 108 129 15 18 10 17 15 20 26 24 48 39 30 35 31 24 62 45 98 132 36 37 50 52 38 351 257 240 238 239 229 188 117 156 173 124 128 129 120 168 188 200 210 215 219 216 203 191 197 211 220 224 225
152 143 154 170 174 195 244 260 250 252 280 309 307 305 332 324 270 254 268 274 272 324 4 8 11 349 359 9 59 33 7 71 112 97 77 84 91 354 22 41 46 37 34 31 18 48 59 44 41 46 56 35 11 20 357 4 39 64 61 40 18 345 252 237 204 169 136 121 149 137 113 122 132 138 151 166 187 205 211 218 228 223 216 214 219 230 232 230
157 152 159 173 190 209 234 243 248 270 280 296 304 289 303 337 301 250 323 335 248 219 292 337 342 328 339 348 354 22 44 79 125 138 92 87 132 52 16 83 76 41 25 29 36 94 98 55 38 51 63 39 13 10 4 19 72 75 59 46 33 34 12 217 156 121 124 123 101 95 123 130 129 138 150 159 173 186 198 211 226 237 245 252 250 247 233 218
167 171 178 176 186 209 227 232 245 274 280 277 283 283 285 323 313 205 136 42 17 177 218 260 318 324 307 286 317 17 87 82 108 135 138 116 107 88 99 128 104 24 15 31 49 90 101 61 34 44 59 52 14 6 28 72 88 77 66 71 61 47 60 152 133 122 136 127 89 102 141 131 110 124 148 162 178 188 196 207 219 228 238 249 251 247 238 221
189 189 193 181 172 209 226 226 241 278 293 273 264 265 265 262 271 185 144 40 329 139 153 199 293 329 322 240 289 25 93 102 95 110 135 144 112 119 133 110 71 46 35 25 37 70 48 31 30 10 31 56 40 44 75 92 86 79 78 77 71 63 71 98 117 135 157 134 110 133 149 124 103 115 134 152 178 195 204 209 220 231 235 244 249 253 253 240
203 202 200 194 197 222 227 218 238 270 314 319 227 218 226 275 302 110 124 116 131 150 125 78 338 4 33 74 287 331 351 245 145 105 102 76 76 137 176 83 56 49 38 22 28 34 4 19 31 354 20 68 54 64 90 95 84 80 79 76 77 77 79 88 98 116 134 124 119 137 142 120 108 113 120 132 157 180 197 203 223 244 249 250 252 255 257 252
213 214 214 213 217 223 225 229 244 254 41 39 296 253 211 218 36 140 187 131 104 128 160 87 36 41 59 79 350 352 350 279 216 162 131 71 55 33 326 19 34 29 29 29 29 11 2 21 23 3 99 96 58 67 89 87 81 80 74 67 71 76 81 87 89 98 114 117 118 132 131 117 113 129 137 138 144 160 192 219 243 263 264 260 257 254 248 240
221 224 223 223 227 227 228 234 244 242 117 74 340 296 231 241 319 315 250 180 152 199 249 219 36 53 69 105 97 78 91 125 132 165 199 194 75 67 74 60 20 18 19 16 7 352 352 354 360 18 86 87 42 59 91 87 75 73 70 58 46 62 83 89 92 96 99 105 120 130 116 104 118 161 176 179 188 206 230 257 269 279 283 282 286 287 265 237
226 231 231 230 234 232 226 223 220 179 129 95 3 278 233 293 314 314 263 198 208 258 270 238 240 36 60 147 138 119 128 145 146 167 193 194 163 138 163 205 18 15 355 344 340 340 349 350 1 20 56 50 33 49 129 128 64 59 71 65 44 60 90 93 97 102 95 109 141 143 110 102 150 202 211 205 230 272 273 269 280 287 288 288 294 302 294 260
Height
3150 3150 3150 3150 3150 3149 3149 3149 3149 3149 3149 3149 3149 3149 3148 3148 3148 3149 3149 3149 3149 3150 3151 3151 3152 3153 3154 3155 3156 3156 3157 3158 3159 3159 3159 3160 3161 3162 3163 3164 3165 3166 3167 3168 3168 3168 3168 3168 3168 3168 3169 3169 3169 3169 3168 3168 3168 3168 3168 3168 3168 3169 3169 3169 3170 3171 3172 3174 3176 3177 3178 3178 3179 3181 3183 3184 3185 3186 3186 3187 3188 3189 3192 3192 3193 3194 3195 3197
3150 3150 3150 3150 3149 3149 3149 3149 3149 3149 3149 3148 3148 3148 3148 3148 3148 3148 3148 3148 3148 3149 3149 3150 3150 3151 3152 3153 3154 3155 3156 3157 3157 3158 3158 3159 3160 3161 3162 3163 3164 3165 3166 3167 3168 3168 3168 3168 3168 3168 3168 3169 3169 3168 3168 3169 3169 3169 3168 3168 3168 3169 3169 3170 3171 3172 3172 3174 3176 3178 3179 3178 3179 3181 3182 3183 3184 3185 3185 3185 3187 3188 3190 3191 3193 3194 3196 3197
3150 3150 3150 3149 3149 3149 3149 3149 3149 3148 3148 3148 3148 3147 3147 3147 3147 3147 3147 3147 3147 3147 3148 3148 3149 3150 3151 3152 3153 3154 3154 3155 3156 3156 3158 3159 3160 3161 3161 3162 3163 3164 3165 3166 3167 3167 3167 3167 3167 3168 3168 3168 3168 3168 3169 3170 3170 3170 3169 3168 3168 3169 3170 3171 3173 3174 3174 3175 3175 3177 3179 3177 3178 3182 3183 3183 3184 3185 3184 3184 3185 3187 3188 3190 3192 3194 3196 3197
3150 3150 3150 3149 3149 3149 3149 3149 3148 3148 3148 3148 3147 3147 3147 3146 3146 3146 3146 3146 3146 3146 3146 3147 3147 3148 3149 3150 3151 3152 3153 3154 3155 3155 3156 3158 3159 3160 3161 3161 3162 3163 3164 3166 3166 3166 3167 3167 3167 3167 3167 3167 3167 3168 3169 3171 3171 3170 3169 3169 3168 3168 3169 3171 3173 3174 3175 3177 3177 3178 3180 3176 3177 3182 3184 3184 3184 3185 3185 3184 3186 3187 3188 3189 3191 3194 3196 3197
3150 3150 3150 3149 3149 3149 3148 3148 3148 3148 3147 3147 3147 3147 3146 3146 3146 3145 3145 3145 3145 3145 3145 3145 3146 3147 3148 3149 3150 3150 3152 3153 3154 3154 3156 3157 3158 3159 3160 3161 3162 3162 3164 3165 3166 3166 3167 3167 3167 3166 3166 3166 3168 3169 3169 3171 3171 3169 3169 3168 3167 3167 3168 3170 3172 3174 3176 3177 3177 3178 3180 3179 3178 3182 3184 3185 3184 3184 3185 3185 3188 3190 3190 3191 3192 3194 3196 3197
3150 3150 3150 3149 3149 3148 3148 3148 3147 3147 3147 3146 3146 3146 3146 3145 3145 3144 3144 3144 3144 3144 3144 3144 3145 3145 3146 3147 3148 3149 3150 3152 3153 3154 3155 3155 3156 3158 3159 3160 3161 3162 3163 3164 3165 3166 3167 3167 3167 3166 3167 3168 3169 3170 3170 3172 3171 3169 3168 3166 3165 3166 3167 3169 3171 3173 3175 3177 3178 3179 3180 3181 3181 3182 3184 3186 3186 3186 3186 3187 3189 3191 3192 3193 3193 3195 3196 3198
3150 3150 3150 3149 3149 3148 3148 3147 3147 3146 3146 3146 3145 3145 3144 3144 3144 3143 3143 3143 3143 3143 3143 3143 3144 3144 3145 3146 3147 3148 3149 3151 3152 3152 3153 3154 3155 3156 3158 3159 3160 3161 3162 3163 3164 3165 3166 3167 3168 3167 3168 3170 3170 3170 3171 3172 3170 3168 3167 3166 3165 3166 3167 3168 3170 3172 3174 3176 3179 3181 3181 3181 3181 3181 3184 3187 3187 3188 3188 3188 3190 3192 3193 3194 3195 3196 3197 3198
3150 3150 3149 3149 3149 3148 3148 3147 3146 3146 3145 3145 3144 3144 3144 3143 3143 3143 3142 3142 3142 3142 3142 3143 3143 3143 3144 3145 3145 3146 3148 3149 3150 3151 3152 3153 3154 3155 3156 3158 3159 3160 3161 3162 3163 3165 3167 3168 3168 3168 3169 3170 3170 3171 3171 3171 3170 3168 3167 3166 3165 3166 3166 3168 3170 3173 3174 3176 3178 3180 3181 3181 3182 3181 3184 3186 3186 3188 3189 3189 3191 3192 3193 3195 3196 3196 3197 3199
3150 3149 3149 3149 3148 3148 3147 3147 3146 3146 3145 3144 3143 3143 3143 3142 3142 3142 3141 3141 3141 3141 3141 3142 3142 3142 3143 3143 3144 3145 3146 3147 3148 3149 3151 3152 3153 3154 3155 3157 3158 3159 3160 3161 3162 3165 3167 3168 3167 3167 3168 3170 3171 3172 3171 3171 3170 3169 3167 3166 3166 3165 3166 3167 3170 3173 3174 3176 3177 3178 3179 3180 3182 3182 3183 3185 3186 3188 3189 3190 3191 3192 3193 3195 3196 3197 3198 3200
3150 3149 3149 3148 3148 3147 3147 3146 3146 3145 3145 3144 3143 3142 3142 3141 3141 3141 3140 3140 3140 3140 3141 3141 3141 3141 3142 3142 3143 3144 3144 3144 3146 3148 3149 3150 3152 3153 3154 3155 3157 3158 3159 3160 3162 3165 3167 3167 3166 3166 3168 3170 3171 3171 3171 3170 3169 3168 3168 3167 3167 3166 3166 3168 3171 3172 3174 3176 3175 3176 3179 3179 3181 3183 3183 3185 3187 3188 3189 3190 3191 3192 3193 3195 3196 3198 3199 3200
3150 3149 3148 3148 3148 3147 3146 3146 3145 3145 3144 3143 3142 3142 3141 3141 3140 3140 3140 3140 3139 3140 3140 3140 3140 3141 3141 3141 3142 3142 3142 3143 3145 3147 3148 3149 3150 3152 3153 3154 3155 3157 3158 3160 3161 3164 3166 3166 3166 3166 3167 3169 3170 3171 3171 3170 3169 3168 3168 3168 3168 3167 3167 3169 3170 3172 3173 3175 3175 3175 3179 3180 3180 3182 3183 3185 3187 3188 3189 3190 3191 3193 3194 3195 3197 3198 3199 3200
3149 3149 3148 3148 3147 3147 3146 3145 3144 3144 3143 3142 3141 3141 3140 3140 3139 3139 3139 3139 3139 3139 3139 3139 3140 3140 3140 3141 3141 3140 3141 3142 3143 3146 3147 3148 3149 3151 3152 3153 3154 3156 3158 3160 3161 3163 3165 3166 3166 3166 3167 3168 3169 3170 3170 3170 3170 3169 3169 3169 3168 3168 3168 3169 3170 3172 3173 3174 3175 3176 3180 3182 3181 3181 3182 3183 3186 3188 3189 3191 3192 3193 3195 3196 3197 3198 3199 3200
3149 3149 3148 3148 3147 3146 3145 3144 3144 3143 3142 3141 3140 3140 3139 3139 3138 3138 3138 3138 3138 3138 3138 3139 3139 3140 3140 3140 3141 3141 3141 3141 3141 3144 3146 3147 3148 3150 3151 3153 3153 3155 3157 3159 3160 3162 3164 3165 3165 3166 3167 3168 3168 3169 3169 3170 3170 3170 3170 3170 3169 3168 3168 3169 3170 3172 3174 3175 3176 3177 3180 3182 3182 3182 3182 3182 3185 3188 3189 3191 3192 3194 3195 3197 3198 3199 3199 3200
3149 3149 3148 3147 3147 3146 3145 3144 3143 3142 3141 3140 3139 3139 3138 3138 3137 3137 3137 3137 3137 3137 3138 3138 3139 3139 3139 3140 3141 3141 3141 3140 3139 3142 3145 3146 3147 3149 3150 3152 3153 3154 3156 3157 3160 3162 3163 3163 3164 3165 3166 3167 3168 3169 3169 3169 3169 3169 3170 3170 3169 3169 3169 3170 3171 3172 3175 3175 3176 3177 3179 3181 3181 3183 3184 3184 3186 3188 3189 3191 3193 3194 3196 3197 3199 3199 3200 3201
3149 3148 3148 3147 3146 3145 3144 3143 3142 3141 3140 3139 3139 3138 3138 3137 3137 3136 3136 3137 3137 3137 3138 3138 3138 3139 3139 3140 3140 3141 3141 3140 3140 3141 3143 3145 3146 3148 3149 3150 3152 3154 3155 3156 3159 3161 3162 3162 3163 3164 3165 3166 3167 3168 3169 3169 3169 3169 3169 3170 3169 3169 3170 3171 3172 3172 3175 3177 3177 3179 3180 3181 3182 3184 3186 3187 3188 3189 3190 3191 3193 3195 3196 3198 3199 3200 3200 3202
3149 3148 3148 3147 3146 3145 3144 3143 3142 3141 3140 3139 3138 3138 3137 3137 3137 3136 3136 3136 3137 3137 3137 3138 3138 3139 3139 3140 3140 3140 3140 3140 3141 3141 3142 3144 3145 3147 3148 3150 3151 3153 3154 3156 3158 3159 3160 3161 3163 3163 3164 3165 3166 3168 3168 3169 3169 3169 3169 3170 3170 3169 3169 3170 3172 3173 3176 3178 3178 3180 3180 3181 3182 3183 3186 3188 3189 3190 3191 3192 3194 3195 3197 3199 3199 3200 3201 3202
3149 3148 3147 3146 3145 3144 3143 3142 3141 3140 3140 3139 3139 3138 3138 3137 3137 3136 3136 3136 3136 3137 3137 3138 3138 3139 3139 3139 3140 3140 3140 3140 3140 3141 3142 3143 3144 3146 3148 3149 3151 3153 3154 3155 3156 3157 3159 3161 3162 3163 3163 3164 3166 3167 3168 3168 3168 3168 3168 3169 3169 3169 3169 3169 3171 3173 3175 3177 3178 3179 3180 3181 3182 3183 3185 3187 3189 3191 3191 3193 3195 3196 3198 3199 3200 3201 3202 3203
3149 3148 3147 3146 3145 3144 3143 3142 3141 3140 3140 3139 3139 3139 3138 3138 3138 3137 3136 3136 3136 3137 3137 3138 3138 3138 3139 3139 3139 3141 3141 3141 3141 3141 3142 3143 3144 3145 3147 3149 3151 3152 3153 3154 3155 3156 3158 3160 3161 3163 3163 3163 3164 3165 3166 3167 3167 3167 3167 3168 3168 3169 3169 3169 3170 3172 3174 3176 3178 3179 3180 3181 3182 3184 3186 3186 3187 3191 3193 3193 3195 3197 3198 3199 3200 3202 3203 3204
3148 3148 3147 3146 3145 3144 3143 3142 3141 3140 3140 3140 3139 3139 3139 3139 3138 3137 3136 3136 3136 3137 3137 3138 3138 3138 3139 3138 3139 3141 3141 3142 3142 3142 3142 3143 3144 3145 3146 3149 3150 3151 3152 3153 3154 3155 3157 3158 3160 3160 3160 3161 3162 3164 3165 3166 3166 3166 3166 3167 3167 3168 3169 3169 3169 3171 3173 3175 3177 3179 3180 3181 3183 3184 3185 3186 3187 3190 3193 3194 3196 3197 3198 3200 3201 3202 3203 3204
3148 3147 3146 3145 3145 3144 3143 3142 3141 3141 3140 3140 3140 3140 3140 3139 3138 3137 3136 3136 3136 3136 3136 3137 3138 3138 3138 3138 3139 3140 3141 3142 3142 3142 3143 3143 3144 3145 3146 3148 3150 3150 3151 3152 3154 3155 3156 3157 3157 3156 3158 3159 3161 3163 3164 3165 3166 3167 3166 3167 3167 3168 3168 3168 3169 3171 3173 3175 3177 3179 3180 3181 3183 3184 3185 3187 3188 3190 3192 3194 3195 3197 3198 3199 3201 3202 3203 3204
3148 3147 3146 3145 3145 3144 3143 3142 3142 3141 3141 3140 3140 3140 3140 3139 3138 3138 3137 3137 3136 3136 3137 3137 3137 3138 3138 3139 3139 3140 3141 3142 3142 3142 3143 3144 3144 3145 3146 3148 3149 3149 3150 3152 3153 3155 3155 3155 3154 3155 3157 3159 3161 3162 3163 3165 3166 3166 3167 3167 3167 3167 3168 3168 3169 3171 3173 3174 3176 3179 3180 3181 3183 3184 3185 3187 3188 3190 3192 3194 3195 3196 3198 3199 3200 3202 3203 3204
3148 3147 3146 3146 3145 3144 3144 3143 3142 3142 3141 3141 3140 3140 3140 3140 3140 3139 3139 3138 3137 3137 3137 3137 3137 3137 3138 3139 3138 3139 3141 3142 3142 3142 3143 3144 3144 3145 3146 3147 3148 3148 3150 3151 3152 3153 3154 3152 3152 3154 3156 3158 3161 3162 3163 3164 3165 3166 3166 3167 3167 3167 3168 3169 3170 3171 3172 3174 3176 3178 3180 3181 3183 3184 3185 3187 3188 3189 3192 3193 3194 3196 3197 3198 3200 3201 3202 3203
3148 3147 3147 3146 3145 3145 3144 3143 3143 3142 3141 3141 3141 3141 3141 3141 3141 3141 3140 3139 3137 3137 3137 3137 3137 3137 3138 3138 3138 3139 3140 3141 3141 3142 3143 3143 3144 3145 3146 3147 3148 3148 3150 3151 3151 3152 3151 3150 3150 3152 3155 3157 3160 3161 3162 3163 3164 3164 3165 3165 3166 3167 3167 3169 3169 3170 3172 3175 3176 3177 3179 3181 3182 3183 3184 3186 3188 3189 3191 3193 3194 3195 3197 3197 3199 3201 3201 3203
3148 3147 3147 3146 3146 3145 3144 3144 3143 3143 3142 3141 3141 3141 3141 3141 3142 3141 3140 3139 3137 3137 3138 3137 3137 3138 3138 3138 3138 3139 3140 3141 3141 3141 3143 3144 3144 3145 3146 3147 3148 3148 3149 3150 3151 3151 3149 3148 3150 3152 3154 3156 3158 3160 3161 3162 3162 3163 3164 3164 3166 3167 3166 3167 3168 3169 3172 3175 3176 3176 3179 3181 3182 3182 3183 3185 3187 3188 3190 3192 3193 3195 3197 3198 3199 3201 3201 3202
3148 3147 3147 3147 3146 3146 3145 3144 3144 3144 3143 3143 3142 3142 3141 3141 3141 3141 3140 3138 3137 3137 3138 3137 3137 3138 3138 3138 3138 3139 3140 3141 3141 3141 3143 3144 3144 3145 3145 3147 3148 3148 3149 3150 3151 3150 3147 3148 3150 3151 3153 3155 3157 3158 3159 3160 3161 3162 3163 3163 3165 3166 3165 3166 3167 3168 3171 3173 3174 3175 3177 3179 3180 3181 3182 3184 3186 3187 3189 3191 3192 3194 3196 3197 3198 3200 3201 3202
3147 3147 3147 3147 3146 3146 3145 3145 3144 3145 3145 3144 3144 3144 3142 3141 3140 3140 3139 3138 3138 3137 3137 3138 3138 3138 3138 3138 3139 3140 3140 3141 3141 3141 3142 3144 3145 3145 3145 3146 3147 3147 3149 3150 3151 3149 3147 3148 3149 3150 3152 3154 3156 3156 3157 3159 3160 3161 3161 3162 3164 3165 3165 3165 3165 3167 3169 3170 3172 3174 3175 3176 3178 3180 3181 3182 3184 3186 3188 3189 3191 3193 3194 3196 3197 3199 3200 3201
3147 3147 3147 3147 3146 3146 3145 3145 3145 3145 3146 3145 3144 3144 3143 3142 3140 3140 3139 3138 3139 3138 3138 3139 3139 3139 3139 3139 3139 3140 3140 3141 3141 3142 3142 3143 3145 3145 3145 3145 3146 3147 3148 3150 3150 3147 3146 3147 3148 3149 3151 3153 3154 3154 3156 3158 3159 3159 3160 3161 3162 3163 3164 3164 3165 3166 3167 3169 3171 3173 3173 3175 3176 3178 3180 3181 3182 3184 3185 3187 3189 3191 3193 3194 3196 3198 3199 3201
3147 3147 3147 3147 3146 3146 3146 3146 3146 3146 3146 3145 3144 3144 3143 3142 3141 3140 3139 3140 3140 3139 3139 3139 3140 3140 3140 3140 3140 3139 3140 3141 3141 3142 3142 3143 3144 3145 3145 3145 3146 3146 3147 3149 3147 3145 3145 3146 3147 3149 3149 3150 3152 3153 3155 3157 3158 3159 3160 3161 3162 3163 3164 3165 3166 3167 3168 3169 3170 3171 3173 3174 3175 3176 3178 3180 3180 3181 3182 3184 3186 3189 3191 3193 3195 3196 3198 3200
3146 3146 3147 3147 3147 3147 3146 3146 3146 3146 3146 3145 3144 3144 3143 3143 3142 3141 3140 3141 3140 3139 3139 3140 3140 3140 3139 3140 3140 3140 3140 3141 3141 3141 3142 3143 3144 3144 3144 3145 3145 3145 3146 3147 3145 3144 3144 3145 3147 3148 3148 3149 3150 3152 3154 3155 3156 3158 3160 3161 3163 3164 3165 3166 3167 3168 3169 3169 3169 3169 3170 3172 3173 3173 3175 3177 3176 3176 3178 3181 3184 3187 3190 3192 3194 3196 3198 3199
3145 3146 3146 3146 3147 3147 3147 3147 3147 3147 3146 3145 3145 3144 3144 3143 3143 3142 3141 3142 3141 3140 3140 3141 3141 3140 3140 3140 3141 3140 3140 3140 3141 3142 3142 3143 3143 3143 3144 3145 3145 3144 3144 3145 3144 3143 3143 3144 3146 3146 3147 3148 3149 3151 3153 3154 3155 3156 3159 3163 3164 3166 3167 3168 3169 3169 3170 3170 3167 3167 3168 3170 3171 3171 3171 3171 3169 3171 3175 3179 3182 3185 3188 3190 3193 3195 3196 3198
3145 3145 3146 3146 3147 3147 3147 3147 3147 3147 3146 3146 3145 3144 3144 3144 3143 3142 3142 3142 3141 3141 3141 3141 3141 3140 3140 3141 3140 3140 3140 3140 3141 3142 3142 3142 3143 3143 3144 3144 3144 3143 3143 3143 3143 3143 3142 3144 3145 3145 3145 3147 3149 3150 3151 3152 3154 3155 3159 3162 3163 3166 3168 3169 3170 3170 3171 3169 3166 3166 3168 3169 3169 3168 3167 3166 3166 3169 3173 3176 3179 3182 3185 3189 3191 3193 3195 3198
3144 3145 3145 3146 3146 3147 3147 3147 3147 3147 3146 3146 3145 3144 3144 3144 3142 3142 3142 3141 3142 3142 3141 3141 3141 3140 3140 3140 3140 3140 3140 3140 3141 3142 3142 3142 3143 3143 3143 3143 3143 3143 3142 3142 3143 3142 3142 3143 3144 3145 3145 3146 3148 3150 3150 3152 3154 3155 3157 3160 3162 3166 3169 3170 3171 3170 3169 3167 3165 3165 3167 3168 3167 3165 3165 3165 3166 3167 3170 3174 3178 3181 3184 3187 3190 3192 3194 3196
3143 3144 3145 3146 3146 3146 3147 3147 3147 3147 3146 3146 3145 3145 3145 3143 3143 3143 3142 3142 3142 3142 3141 3141 3141 3140 3140 3139 3139 3140 3140 3140 3141 3141 3142 3142 3143 3143 3143 3143 3143 3143 3143 3143 3142 3142 3141 3142 3143 3144 3145 3145 3146 3148 3149 3150 3152 3153 3155 3157 3159 3163 3167 3170 3170 3168 3167 3165 3164 3165 3167 3167 3164 3163 3163 3164 3165 3166 3169 3173 3177 3179 3183 3186 3188 3191 3193 3195
3143 3143 3144 3145 3145 3146 3146 3147 3147 3147 3146 3146 3145 3145 3145 3144 3144 3143 3142 3142 3142 3141 3142 3141 3140 3140 3140 3139 3139 3139 3140 3140 3141 3141 3142 3142 3142 3143 3142 3143 3143 3143 3143 3144 3143 3142 3141 3141 3142 3142 3143 3144 3145 3147 3148 3150 3151 3153 3154 3156 3157 3158 3160 3164 3165 3164 3164 3164 3164 3167 3167 3165 3162 3162 3162 3163 3164 3166 3169 3172 3175 3178 3181 3184 3187 3190 3191 3193
3142 3143 3144 3145 3145 3145 3146 3146 3147 3147 3146 3146 3146 3146 3145 3144 3144 3143 3142 3142 3142 3141 3141 3141 3140 3140 3140 3139 3139 3139 3139 3140 3141 3142 3142 3141 3142 3143 3143 3143 3143 3143 3144 3144 3143 3142 3141 3141 3141 3142 3142 3143 3145 3146 3147 3150 3151 3153 3155 3156 3156 3155 3155 3157 3159 3159 3160 3162 3165 3166 3164 3161 3160 3161 3161 3162 3163 3165 3168 3171 3173 3175 3178 3182 3185 3187 3189 3192
3142 3142 3143 3144 3145 3145 3146 3146 3147 3147 3146 3146 3146 3146 3146 3145 3144 3144 3143 3142 3142 3142 3141 3140 3140 3140 3139 3139 3139 3139 3139 3140 3140 3141 3142 3141 3142 3143 3143 3143 3143 3143 3145 3144 3143 3142 3141 3140 3140 3141 3142 3143 3144 3145 3146 3148 3150 3152 3153 3153 3154 3155 3154 3155 3157 3159 3159 3161 3163 3162 3161 3160 3160 3160 3160 3161 3162 3163 3166 3168 3169 3172 3175 3178 3181 3184 3187 3189
3141 3142 3143 3144 3144 3145 3146 3146 3147 3147 3147 3146 3147 3146 3146 3145 3144 3144 3144 3143 3143 3142 3141 3141 3140 3139 3139 3139 3139 3139 3139 3139 3140 3141 3141 3142 3142 3143 3143 3143 3143 3144 3145 3143 3142 3142 3141 3139 3138 3138 3140 3142 3143 3144 3145 3147 3149 3149 3150 3151 3152 3153 3153 3154 3157 3160 3160 3161 3161 3160 3159 3159 3159 3158 3158 3159 3160 3161 3163 3165 3167 3169 3172 3174 3177 3181 3185 3187
3141 3142 3143 3144 3145 3145 3146 3146 3146 3147 3147 3147 3147 3146 3146 3146 3144 3143 3143 3144 3143 3143 3142 3142 3141 3140 3139 3139 3139 3139 3139 3139 3139 3140 3141 3141 3143 3143 3143 3143 3144 3144 3144 3143 3142 3141 3141 3139 3136 3136 3139 3141 3143 3143 3144 3145 3147 3147 3148 3149 3150 3151 3152 3152 3155 3158 3159 3161 3161 3159 3159 3159 3158 3157 3157 3158 3159 3160 3161 3163 3165 3166 3168 3171 3175 3179 3183 3186
3141 3142 3143 3144 3145 3146 3146 3146 3146 3147 3147 3147 3146 3146 3146 3145 3144 3143 3144 3144 3143 3143 3143 3142 3140 3140 3140 3140 3139 3138 3138 3138 3139 3139 3140 3141 3143 3143 3142 3143 3143 3142 3142 3142 3142 3141 3140 3139 3137 3137 3139 3141 3142 3142 3142 3143 3145 3146 3147 3149 3149 3150 3151 3151 3153 3154 3156 3159 3160 3160 3159 3158 3156 3156 3157 3157 3159 3159 3160 3162 3163 3165 3167 3170 3173 3177 3181 3184
3141 3142 3143 3144 3145 3146 3146 3146 3146 3146 3146 3146 3146 3145 3145 3145 3144 3144 3144 3144 3143 3143 3143 3142 3141 3140 3139 3139 3139 3138 3138 3138 3138 3139 3139 3140 3142 3144 3144 3144 3143 3141 3141 3142 3141 3139 3139 3139 3138 3138 3139 3140 3141 3141 3142 3143 3144 3146 3147 3148 3149 3150 3150 3151 3151 3152 3152 3154 3157 3159 3159 3156 3154 3155 3156 3157 3159 3160 3161 3162 3163 3165 3167 3170 3173 3175 3179 3182
3141 3142 3143 3144 3145 3146 3146 3146 3146 3146 3146 3146 3146 3146 3146 3145 3144 3145 3144 3143 3143 3143 3143 3142 3141 3141 3140 3139 3139 3139 3138 3138 3138 3138 3139 3140 3142 3144 3145 3144 3142 3141 3141 3141 3140 3139 3139 3139 3139 3139 3139 3140 3141 3141 3142 3142 3144 3145 3146 3147 3148 3149 3149 3150 3150 3150 3150 3152 3153 3155 3155 3154 3154 3154 3155 3156 3158 3160 3162 3163 3164 3166 3167 3170 3172 3175 3179 3181
3141 3141 3142 3143 3144 3145 3145 3145 3146 3146 3145 3145 3145 3144 3144 3144 3144 3144 3144 3143 3142 3143 3142 3142 3141 3141 3140 3139 3140 3140 3139 3139 3138 3138 3140 3141 3142 3144 3144 3143 3142 3141 3141 3140 3140 3140 3139 3140 3141 3140 3140 3141 3141 3142 3141 3142 3143 3144 3145 3146 3146 3147 3148 3149 3149 3148 3149 3150 3150 3151 3152 3154 3155 3155 3155 3157 3158 3160 3162 3164 3165 3167 3168 3170 3173 3175 3176 3174
3141 3141 3142 3142 3142 3144 3145 3145 3146 3146 3145 3144 3144 3143 3143 3143 3143 3144 3144 3143 3142 3142 3142 3142 3141 3141 3141 3141 3141 3140 3140 3140 3139 3139 3140 3141 3142 3143 3143 3142 3142 3141 3141 3141 3141 3141 3141 3141 3141 3141 3141 3141 3141 3141 3141 3142 3142 3142 3143 3143 3143 3143 3145 3146 3147 3148 3148 3149 3150 3151 3153 3155 3156 3156 3156 3158 3159 3160 3162 3163 3165 3167 3169 3170 3171 3172 3172 3171
3141 3141 3142 3143 3143 3143 3145 3145 3145 3145 3144 3143 3143 3143 3143 3143 3143 3143 3143 3143 3143 3143 3143 3142 3142 3142 3142 3141 3141 3141 3140 3141 3141 3140 3141 3141 3142 3143 3143 3142 3142 3141 3141 3141 3142 3142 3142 3141 3141 3141 3141 3141 3141 3141 3141 3141 3140 3140 3140 3140 3140 3141 3142 3144 3146 3146 3147 3148 3149 3150 3153 3156 3157 3157 3158 3158 3160 3160 3162 3163 3165 3167 3168 3169 3170 3171 3172 3174
3140 3141 3142 3143 3143 3144 3144 3145 3145 3144 3143 3142 3142 3142 3143 3143 3142 3143 3143 3142 3142 3143 3142 3142 3142 3142 3142 3142 3141 3141 3140 3140 3141 3141 3141 3142 3143 3143 3143 3143 3143 3142 3142 3141 3142 3142 3143 3143 3142 3142 3143 3144 3144 3144 3144 3144 3143 3141 3141 3141 3140 3140 3140 3142 3143 3144 3145 3147 3147 3149 3153 3156 3157 3157 3158 3159 3160 3161 3162 3164 3165 3166 3168 3168 3169 3171 3172 3174
3140 3140 3140 3141 3142 3143 3143 3144 3144 3144 3144 3143 3142 3141 3142 3143 3142 3142 3142 3141 3141 3142 3142 3142 3142 3142 3142 3142 3141 3141 3141 3140 3140 3141 3142 3142 3142 3142 3142 3143 3143 3143 3142 3142 3142 3142 3143 3144 3143 3144 3145 3145 3146 3147 3146 3146 3145 3143 3142 3141 3140 3140 3140 3140 3141 3142 3144 3146 3147 3151 3154 3155 3156 3157 3158 3159 3160 3161 3162 3163 3165 3166 3167 3167 3168 3168 3169 3170
3138 3138 3138 3139 3140 3141 3141 3142 3143 3143 3143 3142 3141 3141 3142 3142 3142 3142 3141 3141 3141 3141 3142 3142 3143 3142 3141 3141 3141 3141 3141 3141 3141 3141 3142 3142 3142 3142 3143 3143 3143 3142 3142 3142 3142 3142 3143 3144 3144 3145 3145 3146 3147 3146 3144 3144 3144 3143 3143 3142 3141 3141 3140 3140 3140 3142 3144 3145 3149 3153 3154 3154 3155 3157 3158 3159 3160 3161 3162 3162 3163 3164 3165 3165 3164 3164 3164 3165
3136 3136 3137 3138 3139 3139 3140 3141 3142 3142 3141 3140 3141 3141 3141 3141 3142 3141 3141 3140 3141 3141 3142 3142 3143 3142 3141 3140 3141 3141 3141 3142 3142 3141 3142 3142 3143 3143 3143 3143 3143 3143 3142 3142 3142 3142 3142 3144 3145 3145 3145 3147 3146 3144 3143 3145 3145 3144 3144 3143 3142 3141 3141 3140 3142 3143 3144 3146 3151 3154 3154 3153 3155 3157 3158 3159 3160 3161 3161 3162 3163 3163 3164 3163 3163 3162 3162 3162
3135 3135 3137 3138 3138 3139 3140 3141 3141 3141 3140 3140 3140 3140 3140 3140 3141 3141 3140 3140 3141 3141 3141 3142 3142 3142 3141 3140 3140 3141 3141 3142 3142 3142 3142 3143 3143 3144 3143 3144 3144 3143 3143 3142 3142 3142 3143 3144 3145 3145 3146 3148 3148 3147 3148 3147 3146 3145 3145 3145 3144 3143 3143 3143 3144 3146 3146 3148 3152 3154 3153 3153 3155 3157 3158 3159 3160 3161 3161 3162 3162 3163 3163 3163 3162 3163 3163 3163
3134 3135 3136 3137 3138 3139 3139 3139 3139 3139 3139 3139 3139 3139 3139 3140 3140 3140 3140 3140 3141 3141 3141 3141 3142 3141 3140 3140 3141 3142 3142 3142 3142 3142 3142 3142 3143 3143 3144 3144 3144 3144 3143 3143 3143 3143 3144 3144 3145 3145 3146 3149 3151 3152 3152 3149 3145 3146 3147 3147 3147 3146 3146 3147 3148 3149 3150 3151 3153 3154 3153 3154 3156 3157 3158 3159 3160 3161 3161 3161 3162 3162 3162 3162 3162 3162 3163 3164
3133 3133 3134 3136 3137 3137 3138 3138 3138 3138 3138 3138 3138 3139 3139 3139 3139 3140 3140 3140 3140 3141 3141 3141 3141 3141 3140 3140 3141 3141 3141 3141 3142 3142 3141 3142 3142 3143 3143 3144 3145 3144 3144 3144 3144 3144 3144 3144 3144 3144 3146 3149 3150 3152 3152 3149 3145 3146 3148 3149 3149 3148 3148 3149 3150 3152 3153 3154 3156 3157 3156 3156 3157 3158 3159 3160 3160 3160 3161 3161 3161 3161 3161 3161 3162 3162 3162 3163
3131 3132 3133 3134 3135 3136 3136 3137 3137 3137 3137 3137 3137 3137 3138 3138 3138 3139 3140 3140 3139 3140 3141 3141 3141 3141 3141 3141 3141 3141 3141 3141 3141 3141 3141 3142 3143 3143 3144 3144 3145 3145 3145 3145 3144 3144 3144 3144 3144 3144 3145 3148 3149 3150 3150 3148 3147 3148 3151 3152 3152 3152 3151 3151 3152 3154 3155 3157 3158 3159 3159 3159 3158 3158 3159 3160 3160 3160 3161 3160 3160 3160 3160 3160 3161 3161 3162 3161